FW6363 Weather Reports


time (UTC)temp
C
wind
direction
speed
KPH
gust
KPH
rain 1hr
cm
rain 24hr
cm
rain mn
cm
humidity
%
barometer
mb
20260507170118 28 360 6.4 16.1 0.00 0.00 0.00 12 1013.8
20260507164549 28 360 4.8 16.1 0.00 0.00 0.00 16 1013.9
20260507163048 27 360 4.8 14.5 0.00 0.00 0.00 17 1013.9
20260507161600 26 360 6.4 14.5 0.00 0.00 0.00 18 1014.0
20260507160048 25 360 4.8 14.5 0.00 0.00 0.00 22 1014.1
20260507154545 25 360 6.4 14.5 0.00 0.00 0.00 24 1014.1
20260507153045 26 360 1.6 6.4 0.00 0.00 0.00 23 1014.3
20260507151548 25 360 0.0 4.8 0.00 0.00 0.00 24 1014.3
20260507150052 24 360 1.6 4.8 0.00 0.00 0.00 25 1014.3
20260507144551 23 0 1.6 4.8 0.00 0.00 0.00 25 1014.2
20260507143049 22 0 0.0 3.2 0.00 0.00 0.00 25 1014.2
20260507141604 21 0 0.0 1.6 0.00 0.00 0.00 26 1014.2
20260507140049 21 0 0.0 3.2 0.00 0.00 0.00 27 1014.0
20260507134556 21 360 0.0 3.2 0.00 0.00 0.00 27 1013.9
20260507133051 21 360 0.0 8.0 0.00 0.00 0.00 27 1013.9
20260507131548 21 0 0.0 4.8 0.00 0.00 0.00 27 1013.7
20260507130053 21 0 0.0 3.2 0.00 0.00 0.00 26 1013.6
20260507124552 21 360 3.2 8.0 0.00 0.00 0.00 26 1013.6
20260507123049 21 0 1.6 8.0 0.00 0.00 0.00 26 1013.6
20260507121553 21 360 3.2 9.7 0.00 0.00 0.00 26 1013.4
20260507120059 21 0 3.2 8.0 0.00 0.00 0.00 26 1013.3
20260507114553 21 360 1.6 9.7 0.00 0.00 0.00 25 1013.4
20260507113053 21 360 3.2 8.0 0.00 0.00 0.00 25 1013.4
20260507111551 22 360 1.6 6.4 0.00 0.00 0.00 25 1013.5
20260507110056 22 0 1.6 8.0 0.00 0.00 0.00 24 1013.6
20260507104554 21 360 1.6 4.8 0.00 0.00 0.00 24 1013.7
20260507103053 21 0 0.0 8.0 0.00 0.00 0.00 24 1013.9
20260507101601 21 360 3.2 6.4 0.00 0.00 0.00 25 1014.0
20260507100159 21 360 4.8 6.4 0.00 0.00 0.00 25 1014.1
20260507094555 21 360 1.6 4.8 0.00 0.00 0.00 25 1014.1
20260507093048 21 360 1.6 8.0 0.00 0.00 0.00 24 1014.2
20260507091551 22 360 3.2 6.4 0.00 0.00 0.00 24 1014.2
20260507090048 22 360 3.2 6.4 0.00 0.00 0.00 23 1014.2
20260507084549 22 360 1.6 9.7 0.00 0.00 0.00 23 1014.3
20260507083050 23 360 1.6 8.0 0.00 0.00 0.00 22 1014.4
20260507081551 23 360 4.8 24.1 0.00 0.00 0.00 22 1014.5
20260507080051 23 360 6.4 25.7 0.00 0.00 0.00 22 1014.5
20260507074553 23 360 16.1 32.2 0.00 0.00 0.00 22 1014.6
20260507073107 23 360 14.5 25.7 0.00 0.00 0.00 22 1014.5
20260507071546 23 360 9.7 29.0 0.00 0.00 0.00 21 1014.5
20260507070051 23 360 17.7 29.0 0.00 0.00 0.00 21 1014.5
20260507064604 23 360 16.1 25.7 0.00 0.00 0.00 21 1014.5
20260507063102 23 360 14.5 25.7 0.00 0.00 0.00 21 1014.6
20260507061549 23 360 9.7 20.9 0.00 0.00 0.00 21 1014.5
20260507060051 24 360 11.3 22.5 0.00 0.00 0.00 21 1014.5
20260507054547 24 360 9.7 16.1 0.00 0.00 0.00 21 1014.5
20260507053045 24 360 6.4 17.7 0.00 0.00 0.00 21 1014.5
20260507051547 24 360 11.3 22.5 0.00 0.00 0.00 21 1014.5
20260507050056 24 360 12.9 22.5 0.00 0.00 0.00 21 1014.6
20260507044549 24 360 12.9 20.9 0.00 0.00 0.00 21 1014.4
20260507043050 24 360 8.0 17.7 0.00 0.00 0.00 21 1014.4
20260507041548 24 360 8.0 17.7 0.00 0.00 0.00 22 1014.2
20260507040056 24 360 9.7 17.7 0.00 0.00 0.00 22 1013.9
20260507034602 25 360 8.0 24.1 0.00 0.00 0.00 22 1013.8
20260507033103 25 360 9.7 19.3 0.00 0.00 0.00 22 1013.7
20260507031552 25 360 8.0 16.1 0.00 0.00 0.00 22 1013.5
20260507030054 25 360 9.7 17.7 0.00 0.00 0.00 22 1013.3
20260507024603 25 360 4.8 17.7 0.00 0.00 0.00 22 1013.0
20260507023050 25 360 12.9 25.7 0.00 0.00 0.00 22 1012.9
20260507021547 25 360 12.9 17.7 0.00 0.00 0.00 22 1012.7
20260507020047 25 360 6.4 12.9 0.00 0.00 0.00 21 1012.8
20260507014555 26 360 6.4 20.9 0.00 0.00 0.00 21 1012.6
20260507013058 26 360 6.4 20.9 0.00 0.00 0.00 21 1012.6
20260507011548 26 360 12.9 19.3 0.00 0.00 0.00 21 1012.5
20260507010053 26 360 8.0 22.5 0.00 0.00 0.00 20 1012.4
20260507004549 27 360 8.0 19.3 0.00 0.00 0.00 19 1012.4
20260507003047 27 360 8.0 25.7 0.00 0.00 0.00 19 1012.4
20260507001607 27 360 11.3 20.9 0.00 0.00 0.00 20 1012.4
20260507000048 27 360 11.3 25.7 0.00 0.00 0.00 19 1012.3
20260506234556 27 360 9.7 25.7 0.00 0.00 0.00 19 1012.4
20260506233045 27 360 8.0 24.1 0.00 0.00 0.00 19 1012.5
20260506231546 27 360 8.0 25.7 0.00 0.00 0.00 19 1012.6
20260506230045 27 360 14.5 27.4 0.00 0.00 0.00 20 1013.0
20260506224605 27 360 11.3 22.5 0.00 0.00 0.00 20 1012.9
20260506223049 27 360 12.9 22.5 0.00 0.00 0.00 19 1013.2
20260506221550 27 360 12.9 29.0 0.00 0.00 0.00 20 1013.3
20260506214545 28 360 8.0 17.7 0.00 0.00 0.00 19 1013.7
20260506213049 27 360 1.6 16.1 0.00 0.00 0.00 20 1014.0
20260506211554 26 360 12.9 25.7 0.00 0.00 0.00 21 1014.2
20260506210054 27 360 11.3 24.1 0.00 0.00 0.00 20 1014.4
20260506204548 27 360 3.2 12.9 0.00 0.00 0.00 20 1014.8
20260506203049 26 360 9.7 24.1 0.00 0.00 0.00 21 1014.9
20260506201548 26 360 14.5 24.1 0.00 0.00 0.00 21 1015.0
20260506200044 26 360 11.3 22.5 0.00 0.00 0.00 22 1015.1
20260506194553 25 360 8.0 24.1 0.00 0.00 0.00 22 1015.3
20260506193052 25 360 6.4 19.3 0.00 0.00 0.00 22 1015.4
20260506191548 24 360 6.4 27.4 0.00 0.00 0.00 25 1015.5
20260506190052 24 360 14.5 32.2 0.00 0.00 0.00 24 1015.8
20260506184546 24 360 11.3 25.7 0.00 0.00 0.00 25 1015.8
20260506183047 24 360 9.7 22.5 0.00 0.00 0.00 25 1016.0
20260506181559 23 360 9.7 27.4 0.00 0.00 0.00 26 1016.3
20260506180050 23 360 3.2 20.9 0.00 0.00 0.00 28 1016.3
20260506174545 22 360 9.7 24.1 0.00 0.00 0.00 29 1016.4
20260506173111 22 360 12.9 20.9 0.00 0.00 0.00 29 1016.5
20260506171556 22 360 9.7 20.9 0.00 0.00 0.00 30 1016.4